Showing default

SDA_1683, 65993

Orbit data source: Space-Track

SDA_1683, 65993 is a payload satellite owned by SDA (US) in LEO that was launched on Wed, 15 Oct 2025 UTC via an FALCON 9 launch vehicle from the Air Force Western Test Range (AFWTR). Payload-class satellites include a variety of spacecraft equipped with specific instruments for various scientific and technological missions. These include communications satellites like Starlink; space stations such as the ISS; scientific satellites like the Hubble; Earth observation satellites from companies like Planet Labs, Umbra, and HawkEye 360; GPS; miniature CubeSats for education and research; and military/defense satellites.

Loading next visibility...
Identifier
65993, 2025-230V
Orbit
LEO
Country
Flag of USUS
Related business
Manufacturer
LMSSD/TERRAN
Mission
Operational Defense Communications
Bus & Motor
LM-T1TL, Unknown motor
Mass
~400 kg wet, ~400 kg dry
Launch date (UTC)
2025-10-15 (8 months ago)
Launch vehicle
FALCON 9
Launch site
Air Force Western Test Range (AFWTR)
Object type
Payload
Rocket body
Debris
Shape & HBR
Box + 2 Pan, 1.7 m
Radar Cross Section
0.674 m², Large (>1 m²)

Expand to show TLE details & history
Last TLE update: 12 hours ago

TLE from 12 hours ago
0 SDA_1683
1 65993U 25230V   26171.34909938  .00000049  00000-0  36781-4 0  9998
2 65993  81.2999 209.5058 0001100 100.4067 259.7211 13.78977609 34204
Epoch: 2026-06-20T08:22Z
TLE epoch observation values (Epoch: 2026-06-20T08:22:42.186Z)
Latitude
0.00001°
Longitude
175.26503°
Altitude
970.518 km
Speed
7.366 km/s
True Right ascension
13h 58m 01s
True Declination
0° 00' 00"
Sunlit
Object was in daylight at epoch
Visualization orbit readout
Latitude
Unknown
Longitude
Unknown
Altitude
Unknown
Speed
Unknown
Apparent Right ascension
Unknown
Apparent Declination
Unknown
Sunlit
N/A
Visualization observer readout
Local Sidereal Time
07:12:23
Azimuth
Unknown
Elevation
Unknown
Doppler factor
Unknown
Orbital elements
Apogee altitude
965.536 km
Perigee altitude
963.921 km
Semi-major axis
7,342.866 km
Eccentricity
0.00011
Inclination
81.2999°
RAAN
209.5058°
Arg. of periapsis
100.4067°
True anomaly
259.7087°
Mean anomaly
259.7211°
Eccentric anomaly
259.7149°
Mean motion
3.44941 °/min
Orbital period
104.37 mins
BSTAR
0.000036781
Loading maneuver chart data...
Computing Atmospheric mass density...
Loading historical data...
Loading historical data...
Loading historical data...
Loading historical data...
Loading historical data...
Loading historical data...
Loading historical data...

Documentation

Showing up to 5 results
|